Reflectivity
-20 -20 -20 -20 -20 -20 -20 -20 -19 -20 -20 -20 -20 -10 -1 -20 -20 -20 -20 -20 -20 -20 -20 -20 -20 -20 -20 -20 -20 -20 -20 -20 -20 -20 -20 -15 -12 -20 -20 -20 -20 -20 -20 -20
-20 -20 -20 -20 -20 -20 -20 -20 -20 -20 -20 -20 -20 -20 -20 -20 -20 -20 -20 -20 -20 -20 -20 -20 -20 -20 -20 -20 -20 -20 -20 -20 -20 21 -19 -20 -19 -20 -20 -20 -20 -20 -20 -20
-1 -6 -20 -20 -20 -20 -20 -9 -20 -20 -20 -20 -20 -20 -20 -20 -20 -20 -20 -20 -20 -20 -20 -20 -20 -20 -20 -19 -15 -20 -16 -6 20 23 8 -15 -20 -20 -20 -20 -20 -20 -20 -20
4 -18 -3 -20 -20 -20 -20 -20 -20 -20 -20 -20 -20 -20 -20 -20 -20 -20 -20 -20 -20 -20 -20 -20 -20 -20 -19 -12 20 -17 19 25 4 -11 -20 -20 -20 -20 -20 -20 -20 -20 -20 -20
-20 8 -12 -16 -20 -20 -20 -20 -20 -20 -19 13 -0 -20 -20 -20 -19 16 13 -20 -20 -20 -20 -20 -20 -20 -5 -4 18 27 3 -20 -20 -20 -20 -20 -20 -20 -20 -20 -20 -20 -20 -20
10 11 9 -20 -20 -20 -20 -19 1 8 7 24 -20 9 15 13 -15 -6 -20 -20 -20 -20 -20 -20 -20 -19 -18 7 -9 -20 -20 -20 -20 -20 -20 -20 -20 -20 -20 -20 -20 -20 -20 -20
-20 3 -9 -20 -20 5 14 32 17 13 29 14 12 16 7 -13 -20 -10 -20 -20 -20 -20 -20 -20 -11 -11 -4 -20 -10 3 -20 -20 -20 -20 -20 -20 -20 -20 -20 -20 -20 -20 -20 -20
0 -2 9 2 -17 20 18 27 10 -20 -18 -5 5 27 15 6 -19 -10 -20 -20 -20 -20 -20 -8 3 -8 -19 -8 -20 -20 -20 -20 -20 -20 -20 -20 -20 -20 -20 -20 -20 -20 -20 -20
-17 -0 -20 -20 -20 -6 14 18 -18 19 3 -12 -20 -20 -6 -20 -19 -15 -20 -20 -20 -20 5 10 -20 -20 -20 -20 -20 -20 -20 -20 -20 -20 -20 -20 -20 -20 -20 -20 -20 -20 4 -19
3 -20 -20 -20 -20 -11 3 12 12 28 -2 -20 10 -20 -20 -19 5 -18 -20 -20 -19 -1 -4 -20 -20 -20 -20 -20 -20 -20 -20 -20 -20 -20 -20 -20 -20 -20 -20 -20 -20 4 -19 -6
-8 -20 -20 -18 2 7 8 12 32 -4 -20 -20 -3 -2 -20 -20 -20 -20 -20 -12 3 3 9 -20 -19 -20 -20 -20 -20 -20 -20 -20 -20 -20 -20 -20 -20 -20 -20 -20 -20 -17 -16 -9
-20 -20 19 -20 -20 9 10 39 0 13 3 -20 -18 -19 -20 -20 -20 -20 -17 -15 11 10 -20 -20 -20 -20 -20 -20 -20 -20 -20 -20 -20 -20 -20 -20 -20 -20 -20 -20 -12 6 7 3
14 -19 -20 13 15 3 -1 -19 23 14 -16 -20 -20 -20 -20 -20 -20 -20 8 8 7 -20 -20 -20 -20 -20 -20 -20 -20 -20 -20 -20 -20 -20 -20 -20 -20 -20 -20 -20 -20 -20 4 0
-20 15 26 -13 7 -14 -6 -0 11 9 -19 -20 -6 -20 -20 8 15 14 -0 -20 -20 -20 -20 -20 -20 -20 -20 -20 -20 -20 -20 -20 -20 -20 -20 -19 -20 -10 1 -12 -5 -19 -12 -20
15 -1 -5 1 -17 -11 -13 16 13 -13 -20 -14 2 -2 10 13 14 -11 -19 -20 -20 -20 -20 -20 -20 -20 -20 -20 -20 -20 -20 -20 -20 -20 -20 -20 -1 -15 5 -20 -10 2 -12 -14
-20 -18 10 -17 -19 -20 -19 -20 -20 -20 -20 -7 -20 -20 -20 -15 -20 -20 -20 -20 -20 -20 -20 -20 -20 -20 -20 -20 -20 -20 -20 -20 -20 -20 -20 -6 -14 -20 4 -10 6 4 -5 -20
-20 -20 -11 -20 -20 -20 -20 -20 -20 -20 -20 -20 -20 -20 -20 -20 -20 -20 -20 -20 -20 -20 -20 -20 -20 -20 -20 -20 -20 -20 -20 -20 -20 -2 -3 -5 -20 -20 9 1 9 5 -1 -5
-20 -20 -20 -20 -20 -20 -20 -20 -20 -20 -20 -20 -20 -20 -20 -20 -20 -20 -20 -20 -20 -20 -20 -20 -20 -20 -20 -20 -20 -20 -3 -20 -20 -17 -0 -20 -8 7 6 4 -11 6 -1 -6
-20 -20 -20 -20 -20 -20 -20 -20 -20 -20 -20 -20 -20 -20 -20 -20 -20 -20 -20 -20 -20 -20 -20 -20 -20 -20 -20 -18 -19 -20 -11 -19 -6 -10 -20 -20 -4 -1 5 8 -20 8 3 -8
-20 -20 -20 -20 -20 -20 -20 -20 -20 -20 -19 -20 -20 -20 -20 -20 -20 -20 -20 -20 -20 -20 -20 -19 -18 -20 -20 -19 -20 -20 -2 -20 -20 -7 1 -17 7 1 5 1 -20 -18 -0 1
-20 -20 -20 -20 -20 -20 -20 -20 -20 -16 6 -20 -20 -20 -20 -20 -20 -20 -20 -20 -18 -20 -19 -12 -17 -20 -17 -16 -20 -19 -20 -13 -4 -7 2 3 -17 6 1 -11 -11 -20 -14 -2
-20 -20 -20 -20 -20 -20 -20 -20 -6 9 -10 -17 -20 -20 -20 -20 -20 -20 -20 -20 -20 11 -0 -20 -16 -7 -4 4 -19 -9 -20 2 -20 -3 5 -19 -15 2 -19 -15 3 4 -18 -20
-20 -20 -20 -20 -3 -20 -20 -16 6 -3 -8 -20 -20 -20 -20 -20 -20 -20 -20 -10 -19 2 -11 -20 7 6 -16 -20 2 -3 -10 -10 -20 0 -20 4 -2 -20 -15 -20 -14 -20 -20 -9
-20 -20 -20 -20 -20 -13 -20 8 -13 -20 -20 -20 -20 -20 -20 -19 -20 -8 -6 2 7 5 -1 -1 -9 -15 -0 -20 -3 3 6 5 -1 -5 -20 -20 -20 -4 -20 -20 -20 -18 -20 -20
-20 -20 -20 -20 -19 -12 3 -6 -20 -20 -20 -20 -20 -20 -20 -16 -20 -17 -20 -10 8 3 -20 8 -10 -14 -13 -13 -20 -10 5 3 -1 -6 -2 -9 -20 -20 -1 -20 -20 -20 -20 -20
-5 -20 -20 -10 -2 1 -16 -20 -20 -20 -20 -12 -20 -20 -19 -12 -6 -4 -20 7 -20 6 3 -6 -18 -18 -20 -19 -5 6 -9 -1 -20 -20 -16 -20 -20 -20 -20 -20 -20 -20 -20 -20
-20 -5 -0 -6 -13 -7 -20 1 -12 -8 -20 -20 -20 -20 -20 -7 -4 -5 2 -2 -2 -14 -14 -17 -19 -8 -18 -18 5 -13 -20 -8 -20 -16 -20 -16 -20 -20 -20 -20 -20 -20 -20 -20
Wind_Speed
17 19 20 23 25 25 23 21 20 24 23 23 19 18 13 13 15 17 17 17 17 18 16 15 16 16 10 12 1 3 2 4 2 4 4 7 3 5 5 6 8 9 10 10
7 19 20 20 23 25 26 22 22 21 21 16 17 14 16 19 20 18 15 17 19 18 18 19 15 12 11 10 3 2 2 7 7 8 5 2 4 4 6 8 7 9 8 9
8 9 11 11 15 17 14 17 17 16 21 18 15 15 16 20 17 13 17 17 16 15 17 17 13 9 9 9 9 7 6 4 5 8 5 3 4 6 6 7 7 7 8 9
3 3 7 8 21 24 20 16 17 19 21 14 15 20 19 15 13 13 14 19 19 15 16 12 7 6 6 7 5 2 3 7 10 4 2 4 5 6 6 6 7 8 8 8
4 9 18 16 18 13 19 13 16 10 19 23 21 19 16 11 9 12 17 14 16 16 11 7 6 5 3 2 2 7 11 2 2 2 4 5 6 6 6 7 8 7 6 8
3 14 16 2 18 19 12 15 12 13 17 20 13 13 10 16 13 12 12 15 14 9 8 9 7 7 5 6 8 3 2 3 4 4 5 6 5 6 5 6 7 5 10 8
11 11 11 14 15 12 7 5 17 14 16 17 14 8 15 18 11 11 14 13 10 8 10 10 5 3 6 6 7 4 5 3 4 5 6 6 6 6 6 7 7 8 4 7
5 6 12 4 11 5 14 17 19 15 13 17 16 18 15 14 8 12 14 11 10 9 7 5 5 5 7 6 9 5 4 4 5 5 5 6 6 7 7 8 7 5 8 9
11 8 21 24 25 16 25 20 19 20 19 11 17 18 14 13 12 10 6 9 9 8 4 6 8 4 6 6 5 4 4 5 5 6 7 6 8 7 7 6 6 8 8 10
17 17 24 24 25 22 20 18 18 19 15 18 16 15 16 10 9 8 8 9 7 5 6 7 5 3 6 4 4 6 5 5 5 5 6 6 5 5 5 5 7 8 9 10
21 23 22 20 19 22 22 19 13 15 14 12 15 16 14 10 11 9 9 6 5 6 7 7 3 4 3 3 3 4 5 5 5 5 6 6 5 4 3 3 6 9 9 9
18 21 19 25 22 25 16 11 15 13 13 14 16 15 14 11 10 9 6 6 5 7 5 5 4 2 2 7 8 6 5 5 5 4 5 5 5 6 7 10 14 16 14 10
18 25 26 23 19 17 15 14 12 14 13 14 13 12 14 12 8 7 8 9 9 7 6 5 5 5 8 5 4 4 4 5 4 5 5 6 6 7 8 7 13 15 13 15
24 17 14 14 12 12 8 13 15 13 14 15 13 10 8 8 7 8 7 7 7 7 6 7 6 6 5 4 3 1 3 6 3 4 5 5 5 6 6 6 9 9 10 15
13 12 11 11 13 13 13 13 13 12 12 10 6 8 8 8 10 10 7 7 6 2 5 5 5 5 5 4 1 4 4 3 1 2 3 5 3 4 5 5 7 8 7 9
10 10 11 12 13 14 15 16 13 10 8 6 7 6 7 9 9 8 4 4 4 4 4 3 3 6 4 5 5 6 5 6 2 2 4 3 4 5 5 5 7 6 6 7
5 7 10 11 13 16 16 13 8 5 5 4 4 4 5 5 6 3 4 2 3 4 3 3 4 4 4 5 5 5 5 4 4 3 3 3 3 5 5 5 6 5 5 7
8 9 12 13 14 14 12 7 2 3 5 3 3 3 3 3 4 4 3 3 4 5 5 4 2 4 1 4 4 4 3 3 5 5 3 4 4 4 4 4 6 5 5 6
10 13 15 15 14 9 10 4 2 3 4 3 3 3 3 4 3 3 4 4 5 6 3 1 0 2 5 3 2 4 2 2 4 5 3 4 4 4 3 5 4 5 5 5
14 16 17 16 13 5 8 5 7 5 4 2 2 2 5 4 2 3 3 6 6 3 5 6 5 5 4 3 4 3 2 2 3 3 4 4 4 3 2 4 4 5 6 5
12 14 13 11 11 5 7 5 4 4 3 2 2 2 2 3 2 4 6 6 2 3 4 6 5 5 3 2 2 2 1 2 3 3 3 3 4 3 3 4 4 4 4 5
12 11 10 9 8 8 5 4 3 3 3 3 3 2 2 5 3 3 4 3 5 6 4 4 4 7 1 1 2 1 2 2 2 2 3 2 3 3 3 4 4 4 4 4
12 11 10 9 8 7 3 4 5 5 5 3 3 3 3 2 2 3 4 2 5 5 6 5 5 5 1 3 3 2 2 2 2 1 1 2 2 2 2 2 2 3 3 3
12 10 10 8 3 6 8 5 6 5 4 4 5 4 3 2 3 2 2 6 6 5 5 4 5 5 5 3 3 2 2 2 2 1 2 2 1 1 2 2 2 3 3 3
10 5 7 10 10 6 5 7 5 4 5 5 3 3 3 2 3 3 4 4 5 5 5 2 3 4 4 4 3 3 2 2 1 1 1 1 1 1 1 3 3 2 2 2
7 6 9 10 6 4 6 5 4 4 4 3 3 2 1 2 1 2 4 4 3 5 5 3 2 2 3 4 4 3 2 2 2 2 2 1 2 0 2 2 2 2 3 3
6 7 6 4 4 5 2 2 3 2 3 2 2 2 2 2 3 3 4 2 3 5 4 3 3 3 3 3 3 3 2 3 3 2 3 2 2 2 3 2 2 3 3 2
Wind_Direction
284 295 309 303 290 285 282 287 287 296 291 301 312 321 19 1 353 339 331 349 357 337 329 332 317 309 327 314 282 149 201 195 219 28 346 262 231 249 282 289 284 281 286 283
274 290 293 305 302 287 288 288 281 287 289 314 337 7 359 347 339 339 347 341 335 322 330 312 317 313 335 324 309 148 69 18 344 286 285 283 267 298 282 274 290 285 286 292
279 300 331 288 257 267 271 298 289 301 310 327 336 0 342 332 328 355 337 328 323 315 304 297 329 360 339 356 26 27 16 331 298 275 256 280 300 283 290 288 286 292 296 296
286 332 236 251 317 309 298 303 303 306 298 326 343 343 340 343 351 338 330 321 310 304 298 324 349 342 4 346 331 30 303 266 240 236 298 310 289 293 289 298 302 302 298 305
257 257 283 287 274 327 313 299 300 338 349 336 328 326 317 340 342 318 305 313 298 295 335 351 329 329 305 275 264 254 238 221 22 26 306 297 290 300 311 310 297 294 319 321
280 286 294 326 313 295 306 278 19 348 312 305 345 313 309 315 303 304 311 298 303 336 333 313 290 288 270 232 226 298 10 45 22 331 303 298 319 313 293 291 305 329 303 300
258 267 270 280 290 4 289 334 305 329 332 329 314 297 300 304 319 311 303 315 331 346 321 303 305 308 289 305 287 68 66 29 328 309 318 323 321 306 314 315 311 292 302 304
237 244 279 266 338 334 307 311 333 326 309 294 293 300 312 317 316 311 311 334 345 320 309 334 325 337 293 1 64 57 23 351 320 332 336 323 317 328 317 312 301 334 316 309
258 271 289 304 302 324 318 324 323 304 315 319 324 318 320 310 326 314 7 349 330 307 322 329 306 338 341 40 33 31 339 335 353 341 321 341 324 323 311 319 334 320 320 319
290 275 285 302 301 301 299 316 312 309 345 322 314 326 321 322 322 346 2 329 312 336 320 313 316 89 29 33 14 350 342 354 334 314 340 332 327 311 324 330 335 334 322 315
273 274 290 283 290 302 297 307 331 323 301 325 319 320 323 340 342 354 326 310 311 305 301 312 47 39 65 1 354 342 354 336 322 3 336 318 306 319 323 348 343 318 314 311
271 290 284 284 293 290 327 328 329 313 330 332 343 355 356 341 336 323 306 287 285 299 317 336 18 13 343 31 36 14 340 342 346 321 312 308 328 328 353 330 320 319 331 330
287 291 284 286 328 345 347 324 326 336 345 12 1 352 334 317 316 299 312 351 301 355 8 14 3 349 71 72 68 30 350 325 327 305 337 332 335 332 319 329 332 330 349 353
272 292 341 315 321 309 308 352 338 357 16 357 340 334 333 305 336 336 326 359 4 360 15 17 4 7 41 14 80 196 287 291 275 353 324 316 319 313 322 342 335 332 349 5
348 328 315 354 344 344 350 338 338 6 1 342 354 12 351 350 342 333 26 2 343 339 35 15 13 339 342 360 29 287 282 271 75 296 291 300 308 327 334 346 329 334 345 4
326 347 354 353 337 339 335 335 341 360 351 346 18 357 325 327 325 338 30 33 358 346 2 356 320 304 27 343 330 312 311 115 244 348 298 331 337 340 344 345 334 345 358 6
15 359 358 339 333 333 329 331 352 3 326 6 10 337 322 315 302 300 342 14 302 285 276 262 282 325 341 303 326 323 353 351 345 310 328 336 346 340 342 352 341 353 8 10
10 351 330 332 324 324 323 324 24 315 301 354 306 305 298 303 297 306 316 303 291 281 255 240 243 307 307 332 8 313 307 359 337 323 346 353 337 326 351 360 353 356 12 8
350 329 320 312 314 317 313 285 236 265 281 254 273 286 271 273 280 302 301 299 290 283 6 52 12 333 316 27 341 305 304 4 327 317 3 349 335 351 355 1 4 7 9 21
329 311 304 301 305 303 295 287 283 250 231 188 254 289 301 310 321 314 311 294 285 315 347 317 316 296 263 239 203 283 353 352 318 336 349 335 350 336 1 12 18 27 14 24
297 295 289 278 273 271 259 250 237 243 222 205 228 270 295 302 285 323 327 333 48 14 328 308 282 289 263 277 196 280 315 304 326 349 333 334 343 355 17 13 25 35 41 20
309 301 293 283 267 269 228 198 221 237 242 221 202 229 294 287 288 294 258 315 341 343 322 316 297 320 346 81 276 262 285 311 325 322 344 5 358 356 13 23 21 43 42 45
303 295 292 291 263 265 221 198 210 223 231 200 221 235 270 286 283 318 323 12 333 327 327 316 313 318 220 281 275 269 268 260 278 322 359 353 9 13 6 53 359 59 46 30
293 296 299 298 282 256 239 201 217 206 208 216 222 220 243 294 303 265 10 332 322 329 319 334 347 339 309 291 288 290 282 282 242 245 129 190 256 343 43 43 33 57 54 33
284 279 295 293 278 252 217 235 179 178 193 218 218 180 189 272 296 317 302 302 301 305 313 322 348 345 301 283 293 286 281 259 289 320 214 242 91 27 34 80 64 32 64 57
282 293 292 274 248 220 221 189 202 190 186 173 194 152 218 264 261 283 291 276 288 307 302 307 269 227 254 275 276 277 271 262 176 208 280 276 128 120 109 99 112 84 78 78
313 290 280 251 209 230 240 202 189 168 127 117 257 232 233 312 334 320 314 329 312 315 317 308 284 261 235 272 278 240 221 256 194 232 191 240 173 161 129 150 128 109 117 146